Location: Cheyres
(46.8153°N, 6.7877°E)
Time: 10:03:31
(UTC+00:00)

X-37B - Visible Passes

Search period start: 20 January 2022 00:00
Search period end: 30 January 2022 00:00
Orbit: 334 x 337 km, 45.0° (Epoch: 11 January)

Date Brightness Start Highest point End Pass type
(mag) Time Alt. Az. Time Alt. Az. Time Alt. Az.
27 Jan 2.7 17:37:44 10° S 17:38:58 12° SSE 17:39:47 11° SE visible
28 Jan 1.8 17:56:46 10° SSW 17:59:06 23° SSE 17:59:29 23° SE visible
29 Jan 1.2 18:16:41 10° WSW 18:19:08 38° S 18:19:08 38° S visible
